Powrót do katalogu

STARLINK-2550

AktywnyŁącznośćVLEO
NORAD 48293·PAYLOAD·🇺🇸 United States

Wystrzelony Apr 29, 2021 z Cape Canaveral Space Force Station

Loading…

Następne Przeloty (najbliższe 24 godziny)

TLE

ŚwieżeSource: CelesTrak SupGP

Epoka: Sep 15, 2026, 01:38 UTC

1 48293C 21036T   26258.06854167  .00014604  00000+0  46935-3 0  2580
2 48293  53.1583 274.0795 0001258  92.9850   8.2876 15.31714125    18

Śledź STARLINK-2550 w czasie rzeczywistym z AllMySat

Download on the App Store